Regional Weather Roundup
Issued by NWS Burlington, VT

Home | Current Version | Previous Version | Text Only | Print | Product List | Glossary On
Versions: 1 2 3 4 5 6 7 8 9 10 11 12 13 14 15 16 17 18 19 20 21 22 23 24 25 26 27 28 29 30 31 32 33 34 35 36 37 38 39 40 41 42 43 44 45 46 47 48 49 50
000
ASUS41 KBTV 022310
RWRBTV
VERMONT REGIONAL WEATHER ROUNDUP
NATIONAL WEATHER SERVICE BURLINGTON VT
700 PM EDT SUN AUG 02 2015

NOTE: "FAIR" INDICATES FEW OR NO CLOUDS BELOW 12,000 FEET WITH NO
SIGNIFICANT WEATHER AND/OR OBSTRUCTIONS TO VISIBILITY.

* THESE REPORTS ARE NOT UNDER NWS QUALITY CONTROL AND/OR DO NOT
  REPORT WEATHER SUCH AS PRECIPITATION AND FOG.

VTZ001>019-030000-
_____VERMONT_____


CITY           SKY/WX    TMP DP  RH WIND       PRES   REMARKS
BURLINGTON     SUNNY     80  59  48 S9        29.77S
MONTPELIER     MOSUNNY   75  57  53 S7        29.87S
MORRISVILLE    SUNNY     78  58  49 VRB6      29.82S
ST. JOHNSBURY*   N/A     78  55  44 MISG      29.80S
LYNDONVILLE*   FAIR      74  57  54 S6        29.85R
MIDDLEBURY*    FAIR      76  59  55 S7        29.80R
SPRINGFIELD    SUNNY     81  52  36 VRB7      29.84S
HIGHGATE*      FAIR      78  62  56 S5        29.76S
NEWPORT*       FAIR      75  59  57 S5        29.82S
BENNINGTON     SUNNY     79  57  46 S7        29.85S

_____LAKE CHAMPLAIN_____


CITY           SKY/WX    TMP DP  RH WIND       PRES   REMARKS

$$

NYZ007-026>031-035-052-083-030000-
_____NORTHERN NEW YORK_____


CITY           SKY/WX    TMP DP  RH WIND       PRES   REMARKS
PLATTSBURGH    MOSUNNY   79  64  60 S7        29.75F
SARANAC LAKE   SUNNY     74  53  48 SW12G20   29.82R
MASSENA        SUNNY     78  56  46 SW14G21   29.74S
OGDENSBURG*    SUNNY     75  59  57 SW6       29.76R
POTSDAM*       SUNNY     75  63  64 W9        29.76S
WATERTOWN      MOSUNNY   77  57  50 SW7       29.78S
ALBANY         MOSUNNY   85  56  37 S12       29.82R
GLENS FALLS    SUNNY     80  59  48 S7        29.81R

$$
NHZ002-005-011-030000-
_____NEW HAMPSHIRE_____


CITY           SKY/WX    TMP DP  RH WIND       PRES   REMARKS
LEBANON        SUNNY     81  56  42 S5        29.82S
KEENE          SUNNY     81  55  41 S9        29.85S
MT WASHINGTON  MOSUNNY   52  45  76 W31         N/A
PLYMOUTH       FAIR      80  64  59 CALM      29.82S
WHITEFIELD     SUNNY     77  54  44 SW6       29.84S

$$

_____REGIONAL QUEBEC LOCATIONS_____


CITY           SKY/WX    TMP DP  RH WIND       PRES   REMARKS
MONTREAL         N/A     79  59  50 S13       29.72F
QUEBEC CITY    PTSUNNY   72  57  60 SW13      29.74R
SHERBROOKE     SUNNY     75  59  57 SW3       29.79S

_____REGIONAL ONTARIO LOCATIONS_____


CITY           SKY/WX    TMP DP  RH WIND       PRES   REMARKS
OTTAWA         PTSUNNY   77  57  50 S13G24    29.71F

______KEY______
VSB  - VISIBILITY IN MILES
WCI  - WIND CHILL INDEX
HX   - HEAT INDEX
$$
NNNN



USA.gov is the U.S. government's official web portal to all federal, state and local government web resources and services.